This demonstration page uses our WeatherBlox Daily Observations layout. Learn more.

Left ArrowRight Arrow

34.02893, -84.19858

Hourly Observations for August 15, 2022

Temp ( °F °C ) Dew Point ( °F °C ) Humidity (%) Winds ( mph kmh ) Pressure ( in mb ) Visibility ( mi km ) Precip ( " mm )
12:53 am 00:53 Mostly Clear 74 23.3 69 20.6 85 85 SW 6 9 29.93 1014 10 16 0.00 0.00
1:53 am 01:53 Mostly Cloudy 73 22.8 69 20.6 87 87 S 3 6 29.92 1013 10 16 0.00 0.00
2:53 am 02:53 Clear 74 23.3 67 19.4 79 79 SW 3 6 29.91 1013 10 16 0.00 0.00
3:53 am 03:53 Clear 72 22.2 66 18.9 82 82 Calm 29.90 1013 10 16 0.00 0.00
4:53 am 04:53 Mostly Clear 70 21.1 67 19.4 90 90 SW 3 6 29.89 1012 10 16 0.00 0.00
5:53 am 05:53 Clear 71 21.7 67 19.4 87 87 SSW 7 11 29.89 1012 10 16 0.00 0.00
6:53 am 06:53 Clear 70 21.1 66 18.9 87 87 SW 5 7 29.89 1012 10 16 0.00 0.00
7:53 am 07:53 Mostly Sunny 73 22.8 66 18.9 79 79 WSW 6 9 29.91 1013 10 16 0.00 0.00
8:53 am 08:53 Sunny 75 23.9 67 19.4 76 76 SW 7 11 29.91 1013 10 16 0.00 0.00
9:53 am 09:53 Sunny 77 25 67 19.4 71 71 WSW 7 11 29.92 1013 10 16 0.00 0.00
10:53 am 10:53 Sunny 79 26.1 68 20 69 69 SW 8 13 29.92 1013 10 16 0.00 0.00
11:53 am 11:53 Sunny 84 28.9 70 21.1 63 63 WNW 8 13 29.90 1013 10 16 0.00 0.00
12:53 pm 12:53 Mostly Cloudy 86 30 70 21.1 59 59 WSW 9 15 29.89 1012 10 16 0.00 0.00
1:53 pm 13:53 Partly Cloudy 88 31.1 70 21.1 55 55 WNW 7 11 29.87 1012 10 16 0.00 0.00
2:53 pm 14:53 Partly Cloudy 88 31.1 69 20.6 54 54 VRB 6 9 29.85 1011 10 16 0.00 0.00
3:53 pm 15:53 Partly Cloudy 87 30.6 69 20.6 55 55 W 8 13 29.84 1011 10 16 0.00 0.00
4:53 pm 16:53 Sunny 89 31.7 70 21.1 54 54 W 6 9 29.81 1010 10 16 0.00 0.00
5:53 pm 17:53 Partly Cloudy 86 30 71 21.7 61 61 WSW 12 19 29.81 1010 10 16 0.00 0.00
6:53 pm 18:53 Sunny 86 30 71 21.7 61 61 WNW 6 9 29.80 1009 10 16 0.00 0.00
7:53 pm 19:53 Sunny 83 28.3 72 22.2 70 70 VRB 3 6 29.80 1009 10 16 0.00 0.00
8:36 pm 20:36 Cloudy with Nearby Thunderstorms 79 26.1 66 18.9 65 65 W 16 26 29.84 1011 10 16 0.00 0.00
8:53 pm 20:53 Cloudy with Nearby Thunderstorms 73 22.8 69 20.6 87 87 WNW 13 20 29.85 1011 2 3 0.10 2.54
9:03 pm 21:03 Cloudy with Nearby Thunderstorms 72 22.2 69 20.6 91 91 W 9 15 29.86 1011 5 8 0.02 0.51
9:36 pm 21:36 Mostly Clear with Mist and Fog 72 22.2 71 21.7 97 97 S 3 6 29.87 1011 5 8 0.02 0.51
9:53 pm 21:53 Clear with Mist and Fog 72 22.2 70 21.1 93 93 NNE 3 6 29.88 1012 5 8 0.02 0.51
10:53 pm 22:53 Partly Cloudy 73 22.8 70 21.1 90 90 WSW 5 7 29.87 1012 10 16 0.01 0.13
11:53 pm 23:53 Clear 71 21.7 70 21.1 96 96 Calm 29.87 1011 8 13 0.00 0.00

Powered by AerisWeather